DECAYED

H-2A R/B, 61440 (Decayed)

Orbit data source: Space-Track

H-2A R/B, 61440 was space debris in LEO originally from a launch on Thu, 26 Sep 2024 UTC launched from the Tanegashima Space Center (TNSTA). Debris objects in space refer to the collection of defunct objects orbiting the Earth. Examples of debris include non-operational satellites, rocket bodies, and fragments generated from explosions, collisions, or faulty payload assembly.

Not visible in the next 10 days
Identifier
61440, 2024-176B
Orbit
Decayed
Country
Flag of JPJP / JPN
Related business
Manufacturer
MHI Tobishima
Mission
Decayed spacecraft
Bus & Motor
H-2A STAGE 2, Unknown motor
Mass
4,000 kg wet, 4,000 kg dry
Launch date (UTC)
2024-09-26 (2 years ago)
Launch vehicle
Unknown
Launch site
Tanegashima Space Center (TNSTA)
Object type
Payload
Rocket body
Debris
Shape & HBR
Cyl, 4.6 m
Radar Cross Section
35.186 m², Large (>1 m²)

Expand to show TLE details & history
Last TLE update: 5 days ago

TLE from 5 days ago
0 H-2A R/B
1 61440U 24176B   26165.62230633  .10898814  24934-5  17274-3 0  9990
2 61440  97.2444 310.3034 0014687 263.1599  96.8034 16.47341830 97049
Epoch: 2026-06-14T14:56Z
TLE epoch observation values (Epoch: 2026-06-14T14:56:07.266Z)
Latitude
-0.00004°
Longitude
-176.64727°
Altitude
150.76 km
Speed
7.815 km/s
True Right ascension
20h 41m 12s
True Declination
0° 00' 00"
Sunlit
Object was in full shadow at epoch
Visualization orbit readout
Latitude
Unknown
Longitude
Unknown
Altitude
Unknown
Speed
Unknown
Apparent Right ascension
Unknown
Apparent Declination
Unknown
Sunlit
N/A
Visualization observer readout
Local Sidereal Time
08:41:49
Azimuth
Unknown
Elevation
Unknown
Doppler factor
Unknown
Orbital elements
Apogee altitude
152.714 km
Perigee altitude
133.558 km
Semi-major axis
6,521.273 km
Eccentricity
0.00147
Inclination
97.2444°
RAAN
310.3034°
Arg. of periapsis
263.1599°
True anomaly
96.97048°
Mean anomaly
96.8034°
Eccentric anomaly
96.88694°
Mean motion
4.1214 °/min
Orbital period
87.35 mins
BSTAR
0.00017274
Loading maneuver chart data...
Computing Atmospheric mass density...
Loading historical data...
Loading historical data...
Loading historical data...
Loading historical data...
Loading historical data...
Loading historical data...
Loading historical data...
Other satellites on launch #176 in the year 2024 (2024-09-26 UTC)

Documentation

Showing up to 5 results
|